Previsão horária em Aliabad

Hoje, 19 Junho, Sábado

Tempo Temperatura Precipitação Vento Pressão Humidade
00:00 +27°C° 0 mm 2 m/s 739 mmHg 37%
01:00 +26°C° 0 mm 2 m/s 739 mmHg 38%
02:00 +25°C° 0 mm 2 m/s 739 mmHg 39%
03:00 +25°C° 0 mm 2 m/s 739 mmHg 40%
04:00 +26°C° 0 mm 1 m/s 740 mmHg 41%
05:00 +27°C° 0 mm 1 m/s 740 mmHg 41%
06:00 +28°C° 0 mm 1 m/s 740 mmHg 41%
07:00 +29°C° 0 mm 1 m/s 740 mmHg 37%
08:00 +31°C° 0 mm 2 m/s 740 mmHg 32%
09:00 +34°C° 0 mm 2 m/s 740 mmHg 29%
10:00 +35°C° 0 mm 2 m/s 740 mmHg 26%
11:00 +37°C° 0 mm 3 m/s 740 mmHg 23%
12:00 +38°C° 0 mm 3 m/s 739 mmHg 21%
13:00 +40°C° 0 mm 4 m/s 739 mmHg 19%
14:00 +41°C° 0 mm 4 m/s 738 mmHg 18%
15:00 +41°C° 0 mm 4 m/s 738 mmHg 17%
16:00 +41°C° 0 mm 4 m/s 738 mmHg 18%
17:00 +40°C° 0 mm 4 m/s 737 mmHg 20%
18:00 +38°C° 0 mm 4 m/s 737 mmHg 21%
19:00 +36°C° 0 mm 4 m/s 738 mmHg 24%
20:00 +33°C° 0 mm 3 m/s 738 mmHg 27%
21:00 +30°C° 0 mm 3 m/s 739 mmHg 30%
22:00 +29°C° 0 mm 3 m/s 739 mmHg 31%
23:00 +28°C° 0 mm 2 m/s 739 mmHg 32%

Amanhã, 20 Junho, Domingo

Tempo Temperatura Precipitação Vento Pressão Humidade
00:00 +27°C° 0 mm 2 m/s 739 mmHg 33%
01:00 +27°C° 0 mm 2 m/s 739 mmHg 34%
02:00 +26°C° 0 mm 2 m/s 739 mmHg 35%
03:00 +26°C° 0 mm 1 m/s 739 mmHg 36%
04:00 +27°C° 0 mm 1 m/s 739 mmHg 36%
05:00 +27°C° 0 mm 1 m/s 739 mmHg 36%
06:00 +28°C° 0 mm 1 m/s 739 mmHg 35%
07:00 +30°C° 0 mm 1 m/s 739 mmHg 32%
08:00 +32°C° 0 mm 2 m/s 740 mmHg 28%
09:00 +34°C° 0 mm 2 m/s 740 mmHg 25%
10:00 +36°C° 0 mm 3 m/s 739 mmHg 22%
11:00 +38°C° 0 mm 4 m/s 739 mmHg 20%
12:00 +40°C° 0 mm 4 m/s 739 mmHg 18%
13:00 +41°C° 0 mm 5 m/s 738 mmHg 18%
14:00 +42°C° 0 mm 5 m/s 738 mmHg 17%
15:00 +42°C° 0 mm 6 m/s 738 mmHg 17%
16:00 +41°C° 0 mm 6 m/s 737 mmHg 19%
17:00 +40°C° 0 mm 6 m/s 737 mmHg 20%
18:00 +39°C° 0 mm 6 m/s 737 mmHg 22%
19:00 +36°C° 0 mm 5 m/s 738 mmHg 25%
20:00 +33°C° 0 mm 4 m/s 739 mmHg 29%
21:00 +30°C° 0 mm 4 m/s 739 mmHg 32%
22:00 +28°C° 0 mm 3 m/s 739 mmHg 33%
23:00 +27°C° 0 mm 2 m/s 739 mmHg 35%

Depois de amanhã, 21 Junho, Segunda-feira

Tempo Temperatura Precipitação Vento Pressão Humidade
00:00 +26°C° 0 mm 2 m/s 739 mmHg 37%
01:00 +26°C° 0 mm 2 m/s 739 mmHg 37%
02:00 +25°C° 0 mm 2 m/s 739 mmHg 37%
03:00 +25°C° 0 mm 2 m/s 739 mmHg 37%
04:00 +26°C° 0 mm 1 m/s 739 mmHg 37%
05:00 +27°C° 0 mm 1 m/s 739 mmHg 37%
06:00 +28°C° 0 mm 1 m/s 739 mmHg 36%
07:00 +30°C° 0 mm 1 m/s 740 mmHg 32%
08:00 +31°C° 0 mm 1 m/s 740 mmHg 29%
09:00 +34°C° 0 mm 2 m/s 740 mmHg 25%
10:00 +36°C° 0 mm 2 m/s 740 mmHg 22%
11:00 +37°C° 0 mm 3 m/s 739 mmHg 20%
12:00 +40°C° 0 mm 4 m/s 739 mmHg 18%
13:00 +40°C° 0 mm 4 m/s 739 mmHg 17%
14:00 +41°C° 0 mm 4 m/s 738 mmHg 15%
15:00 +42°C° 0 mm 5 m/s 738 mmHg 14%
16:00 +41°C° 0 mm 5 m/s 738 mmHg 15%
17:00 +40°C° 0 mm 5 m/s 737 mmHg 16%
18:00 +39°C° 0 mm 5 m/s 737 mmHg 17%
19:00 +35°C° 0 mm 4 m/s 738 mmHg 19%
20:00 +32°C° 0 mm 4 m/s 738 mmHg 21%
21:00 +29°C° 0 mm 3 m/s 739 mmHg 23%
22:00 +28°C° 0 mm 2 m/s 739 mmHg 24%
23:00 +27°C° 0 mm 2 m/s 739 mmHg 25%

22 Junho, Terça-feira

Tempo Temperatura Precipitação Vento Pressão Humidade
00:00 +25°C° 0 mm 1 m/s 739 mmHg 26%
01:00 +25°C° 0 mm 1 m/s 739 mmHg 27%
02:00 +25°C° 0 mm 1 m/s 739 mmHg 27%
03:00 +24°C° 0 mm 1 m/s 739 mmHg 28%
04:00 +25°C° 0 mm 1 m/s 739 mmHg 28%
05:00 +26°C° 0 mm 1 m/s 739 mmHg 29%
06:00 +27°C° 0 mm 1 m/s 740 mmHg 29%
07:00 +29°C° 0 mm 1 m/s 740 mmHg 25%
08:00 +31°C° 0 mm 1 m/s 740 mmHg 22%
09:00 +33°C° 0 mm 1 m/s 740 mmHg 18%
10:00 +35°C° 0 mm 2 m/s 740 mmHg 17%
11:00 +37°C° 0 mm 2 m/s 740 mmHg 15%
12:00 +38°C° 0 mm 3 m/s 739 mmHg 14%
13:00 +39°C° 0 mm 3 m/s 739 mmHg 13%
14:00 +40°C° 0 mm 3 m/s 738 mmHg 12%
15:00 +40°C° 0 mm 3 m/s 738 mmHg 11%
16:00 +40°C° 0 mm 3 m/s 738 mmHg 13%
17:00 +39°C° 0 mm 3 m/s 738 mmHg 14%
18:00 +39°C° 0 mm 3 m/s 738 mmHg 15%
19:00 +36°C° 0 mm 3 m/s 738 mmHg 17%
20:00 +33°C° 0 mm 3 m/s 739 mmHg 20%
21:00 +29°C° 0 mm 3 m/s 739 mmHg 22%
22:00 +29°C° 0 mm 2 m/s 739 mmHg 22%
23:00 +28°C° 0 mm 2 m/s 739 mmHg 23%

23 Junho, Quarta-feira

Tempo Temperatura Precipitação Vento Pressão Humidade
00:00 +27°C° 0 mm 1 m/s 739 mmHg 24%
01:00 +26°C° 0 mm 2 m/s 739 mmHg 25%
02:00 +26°C° 0 mm 2 m/s 739 mmHg 26%
03:00 +25°C° 0 mm 2 m/s 739 mmHg 26%
04:00 +26°C° 0 mm 2 m/s 739 mmHg 27%
05:00 +27°C° 0 mm 1 m/s 739 mmHg 28%
06:00 +28°C° 0 mm 1 m/s 740 mmHg 29%
07:00 +30°C° 0 mm 1 m/s 739 mmHg 25%
08:00 +32°C° 0 mm 1 m/s 739 mmHg 21%
09:00 +35°C° 0 mm 1 m/s 739 mmHg 18%
10:00 +37°C° 0 mm 2 m/s 739 mmHg 17%
11:00 +38°C° 0 mm 3 m/s 739 mmHg 15%
12:00 +40°C° 0 mm 3 m/s 739 mmHg 14%
13:00 +41°C° 0 mm 4 m/s 738 mmHg 13%
14:00 +42°C° 0 mm 4 m/s 738 mmHg 13%
15:00 +43°C° 0 mm 4 m/s 738 mmHg 12%
16:00 +42°C° 0 mm 4 m/s 737 mmHg 13%
17:00 +42°C° 0 mm 4 m/s 737 mmHg 15%
18:00 +40°C° 0 mm 3 m/s 737 mmHg 16%
19:00 +37°C° 0 mm 3 m/s 738 mmHg 19%
20:00 +34°C° 0 mm 3 m/s 738 mmHg 22%
21:00 +30°C° 0 mm 3 m/s 739 mmHg 25%
22:00 +29°C° 0 mm 2 m/s 739 mmHg 27%
23:00 +28°C° 0 mm 2 m/s 739 mmHg 28%

24 Junho, Quinta-feira

Tempo Temperatura Precipitação Vento Pressão Humidade
00:00 +27°C° 0 mm 2 m/s 739 mmHg 30%
01:00 +27°C° 0 mm 2 m/s 739 mmHg 31%
02:00 +26°C° 0 mm 1 m/s 739 mmHg 32%
03:00 +26°C° 0 mm 1 m/s 739 mmHg 32%
04:00 +27°C° 0 mm 1 m/s 740 mmHg 32%
05:00 +28°C° 0 mm 1 m/s 740 mmHg 32%
06:00 +29°C° 0 mm 1 m/s 740 mmHg 32%
07:00 +31°C° 0 mm 1 m/s 740 mmHg 28%
08:00 +32°C° 0 mm 1 m/s 740 mmHg 25%
09:00 +35°C° 0 mm 2 m/s 740 mmHg 22%
10:00 +37°C° 0 mm 2 m/s 740 mmHg 20%
11:00 +38°C° 0 mm 3 m/s 740 mmHg 19%
12:00 +40°C° 0 mm 4 m/s 740 mmHg 17%
13:00 +41°C° 0 mm 4 m/s 739 mmHg 16%
14:00 +42°C° 0 mm 4 m/s 739 mmHg 14%
15:00 +43°C° 0 mm 4 m/s 738 mmHg 13%
16:00 +42°C° 0 mm 4 m/s 738 mmHg 14%
17:00 +40°C° 0 mm 3 m/s 738 mmHg 14%
18:00 +40°C° 0 mm 3 m/s 737 mmHg 15%
19:00 +37°C° 0 mm 3 m/s 738 mmHg 17%
20:00 +34°C° 0 mm 3 m/s 738 mmHg 20%
21:00 +30°C° 0 mm 3 m/s 739 mmHg 22%
22:00 +29°C° 0 mm 2 m/s 739 mmHg 23%
23:00 +28°C° 0 mm 2 m/s 739 mmHg 25%
Mostrar mais